RH
52 52 54 62 60 53 54 55 59 60 57 59 59 50 45 43 39 38 36 35 44 48 44 44 40 37 36 29 30 33 32 36 39 38 39 43 42 41 44 41 35 37 36 32 30 29 25 23 24 24 23 20 12 6 6 6 6 7 8 8 10 14 15 14 18 21 19 23 29 31 32 31 30 31 33 30 29 33 28 21 25 30 31 28 26 26
55 55 51 53 52 48 50 51 52 54 54 55 57 51 45 43 42 38 37 37 41 45 44 44 40 38 37 31 28 29 30 32 35 36 38 39 38 39 42 40 35 34 34 32 31 30 27 23 23 22 23 26 16 6 6 7 6 7 9 8 9 14 14 10 13 17 15 14 20 27 29 32 33 31 31 31 30 32 29 22 25 30 31 28 26 26
60 53 47 47 48 49 50 48 49 52 54 54 52 48 44 43 42 38 38 41 41 42 45 46 42 37 36 33 29 28 29 29 31 33 36 39 40 39 41 40 35 33 33 34 32 29 28 25 24 23 23 24 17 9 8 7 7 9 9 9 8 10 11 10 11 14 14 14 17 21 26 30 33 32 31 31 31 31 29 24 26 31 32 28 26 26
56 46 43 44 47 51 52 48 46 48 52 53 50 48 45 46 49 43 38 40 40 41 43 43 38 33 33 34 32 32 33 31 29 30 31 34 36 37 40 39 35 32 34 35 32 30 29 26 25 26 24 23 22 20 13 7 8 9 8 8 9 9 10 10 11 13 17 21 26 28 29 31 32 33 32 31 31 31 28 26 27 31 32 29 26 25
46 40 41 41 43 48 49 46 46 47 49 49 46 47 46 45 46 44 42 42 43 44 42 40 39 37 36 35 34 33 35 36 31 31 33 33 32 36 38 39 38 35 35 36 33 30 29 27 28 28 26 26 28 25 14 9 10 9 8 8 8 9 10 11 11 12 16 23 31 35 34 34 34 33 32 31 32 32 28 27 29 30 31 30 27 25
40 37 40 39 41 47 46 45 46 47 51 49 44 46 49 50 48 47 49 47 49 51 44 45 49 44 41 42 37 30 34 38 32 33 38 34 33 36 37 39 41 40 37 37 35 32 29 30 34 33 32 33 33 28 18 13 13 12 11 10 9 9 9 10 11 12 15 17 24 31 34 35 35 33 32 32 32 31 30 28 30 30 29 29 28 25
36 36 40 40 40 44 44 46 47 47 52 50 46 46 49 54 56 56 55 52 54 54 48 52 53 45 44 46 41 34 38 39 34 38 43 39 36 37 39 41 42 44 44 40 38 35 32 35 39 37 38 40 38 33 24 17 17 16 14 13 12 11 10 10 11 12 14 14 18 27 33 36 36 33 32 33 32 31 29 28 30 31 29 28 28 26
38 40 39 39 38 38 41 45 48 48 47 45 44 47 49 51 56 60 60 59 60 56 52 54 52 52 51 47 46 46 47 46 43 44 47 47 44 39 41 43 43 49 52 46 42 39 38 41 43 41 43 44 41 39 31 21 20 18 16 16 14 13 12 11 11 12 12 14 17 26 34 37 36 34 32 33 33 31 29 28 29 31 30 29 28 27
38 40 35 38 38 35 37 40 43 45 44 43 44 46 47 47 50 57 60 60 61 64 65 57 51 57 56 50 54 55 53 56 54 50 50 51 48 42 44 49 48 52 54 50 45 42 43 47 48 46 45 45 43 43 37 25 21 19 16 16 15 14 14 12 12 12 12 14 18 23 33 38 36 33 31 32 33 31 29 28 29 30 30 30 29 28
29 31 31 37 40 36 36 36 38 41 42 45 46 45 46 47 48 53 57 58 57 61 66 57 51 60 60 54 60 59 56 61 61 58 58 57 52 48 50 54 52 53 55 53 47 42 45 48 49 48 46 45 45 46 42 30 23 21 17 16 16 16 15 13 12 12 12 14 17 21 30 38 37 34 31 32 34 32 29 28 29 30 31 30 30 28
26 31 29 31 35 36 37 37 37 40 42 44 45 47 50 51 51 53 56 57 55 55 56 53 50 59 61 54 54 55 54 60 64 63 62 61 56 50 50 52 51 51 53 52 48 43 45 48 48 47 45 44 45 48 47 37 28 24 20 17 17 16 16 15 13 12 12 13 17 21 28 34 36 35 34 33 34 33 30 28 29 30 31 30 29 29
32 32 28 27 28 31 37 37 38 40 42 43 44 49 52 53 56 59 57 54 57 57 53 51 50 54 56 51 52 57 56 57 61 61 59 58 55 51 50 52 52 50 48 50 49 47 48 49 48 47 45 44 45 48 49 44 38 33 25 19 18 17 17 17 15 13 12 12 18 27 33 33 32 33 35 35 35 35 32 29 30 30 31 31 29 29
39 30 27 29 27 29 36 36 36 40 40 42 46 51 54 52 52 57 57 59 64 60 51 51 55 55 55 51 52 60 61 57 56 55 55 55 54 53 51 51 52 49 47 49 50 51 53 52 49 47 47 46 46 49 50 49 46 40 31 22 20 18 18 18 16 13 12 12 16 24 34 38 36 32 33 36 37 37 33 30 30 30 31 32 30 30
44 34 30 32 28 27 32 31 32 39 40 41 43 48 52 51 51 53 58 64 65 57 50 50 54 56 57 51 48 52 56 56 53 49 49 49 49 50 52 52 51 48 47 47 47 51 55 54 49 47 47 48 49 51 53 52 47 42 35 29 23 19 19 19 17 14 13 13 14 16 24 34 38 37 36 34 34 36 34 30 30 30 30 31 31 30
42 39 30 28 26 25 28 26 26 35 41 41 43 44 43 44 50 52 51 55 59 55 51 48 50 55 57 53 48 44 47 53 52 48 47 46 45 47 50 53 50 47 49 48 47 50 54 55 52 48 47 48 49 51 55 55 50 42 38 34 28 22 20 19 18 16 13 13 15 16 18 23 28 34 38 34 31 34 32 30 30 30 30 31 30 31
40 39 27 21 23 23 26 24 22 29 36 39 43 41 34 35 45 49 44 46 54 55 49 46 49 53 53 54 51 44 43 47 47 47 45 43 44 45 47 49 48 48 49 48 48 49 52 56 55 51 48 48 51 53 54 55 53 46 40 36 31 24 21 20 18 16 13 13 14 15 18 21 23 27 33 35 36 34 31 30 31 30 31 31 31 33
40 40 29 22 23 22 21 21 22 24 25 33 40 34 28 34 39 43 45 45 46 47 45 45 50 52 50 51 52 48 44 43 45 47 45 42 44 46 45 46 47 49 49 49 49 49 52 55 55 54 52 52 54 54 54 54 53 49 43 38 32 25 21 19 17 15 14 13 15 15 17 21 26 28 29 35 40 37 32 31 31 31 32 32 33 34
33 36 32 27 28 25 20 22 27 26 23 28 33 27 28 39 39 38 44 46 44 44 44 43 45 50 50 51 54 52 46 43 45 45 43 42 44 46 47 47 48 49 49 50 51 52 52 53 54 56 56 55 56 55 54 54 53 49 44 38 32 25 20 18 17 15 14 13 14 16 16 18 25 28 27 32 37 37 34 32 31 32 33 33 34 36
27 33 38 34 31 26 21 25 31 32 29 26 29 29 32 40 41 38 41 43 43 46 46 43 40 43 48 52 54 53 47 45 47 45 43 43 43 45 49 48 46 45 46 48 52 52 51 50 53 56 57 58 57 56 56 55 54 49 43 39 33 25 20 18 15 15 16 15 14 16 18 21 27 27 25 29 35 36 35 34 34 33 34 35 36 37
29 32 37 36 31 25 25 31 32 33 33 30 31 31 32 35 36 38 43 42 41 43 43 44 42 41 47 49 46 46 46 44 46 47 45 44 43 43 47 48 47 44 44 48 50 49 49 50 52 55 58 59 57 58 59 57 56 52 43 39 34 25 20 18 15 19 24 20 14 15 17 20 25 24 21 26 34 37 33 32 34 35 35 36 37 38
28 29 33 36 33 29 32 33 29 27 28 30 32 30 31 33 32 37 44 38 37 42 44 46 45 40 45 46 40 42 46 43 43 45 43 43 42 40 43 47 47 45 44 47 47 48 50 52 53 56 58 57 58 61 62 61 59 54 44 39 34 26 20 16 15 20 23 17 13 15 17 18 20 21 20 24 31 37 33 28 33 36 36 38 37 37
25 27 32 37 37 37 36 28 21 21 21 22 26 26 28 30 28 34 39 34 35 42 44 47 45 40 42 43 39 39 41 40 41 41 40 42 41 40 42 44 44 44 43 46 49 49 51 52 54 56 55 55 59 64 65 64 62 55 48 43 36 28 21 16 16 17 17 14 13 15 16 18 19 19 19 21 27 36 35 30 34 38 38 38 38 38
29 27 31 35 37 37 34 26 20 21 20 20 25 27 29 31 27 27 32 34 34 37 41 44 43 42 41 38 37 38 38 38 39 40 41 41 39 39 42 41 41 40 42 48 50 49 49 52 53 53 52 54 60 63 64 64 62 57 53 45 37 33 30 22 19 17 15 14 14 14 15 18 19 18 20 22 23 26 30 31 35 38 38 38 37 39
30 26 28 35 39 36 33 31 26 25 24 25 28 29 27 28 27 23 27 33 33 34 39 41 43 45 40 35 35 38 39 39 40 41 42 41 39 39 42 44 42 41 45 49 50 50 51 52 53 52 52 56 60 62 63 63 61 57 53 46 39 39 39 30 21 18 16 15 14 14 15 17 18 18 20 23 20 19 24 31 35 36 38 40 38 39
27 24 26 36 40 37 36 36 36 34 30 28 31 30 26 25 26 25 25 28 30 33 34 35 42 46 39 34 32 34 38 40 39 41 43 44 43 40 42 47 45 45 49 49 48 50 51 52 53 51 52 56 59 61 60 59 58 55 51 46 41 41 42 33 21 17 16 16 14 14 15 17 19 18 18 20 18 17 23 32 37 36 36 39 40 40
28 26 29 37 42 40 39 39 39 38 35 32 33 33 32 30 27 25 25 24 28 32 30 32 39 40 34 30 30 36 40 37 37 43 46 46 45 41 42 45 45 46 50 51 54 58 56 55 55 51 51 56 56 57 57 54 54 53 49 45 41 40 39 33 23 17 16 15 14 14 15 17 18 18 17 17 17 18 23 29 36 40 37 38 42 42
27 28 29 32 36 38 38 39 38 36 33 33 33 33 36 36 30 26 27 27 29 30 30 32 35 35 32 28 29 39 40 33 37 46 46 45 46 44 42 43 43 43 44 48 55 60 60 60 58 52 50 53 52 52 53 50 50 51 48 46 43 39 37 33 27 21 16 14 14 14 14 16 19 18 17 17 17 19 22 24 30 36 35 37 42 43
23 26 28 27 29 34 35 36 38 35 30 30 33 32 34 37 33 29 29 30 31 32 32 34 35 33 31 28 32 39 35 31 37 42 42 45 50 51 48 47 48 47 46 47 48 51 55 57 56 52 49 51 50 50 50 48 46 48 48 46 45 42 37 35 33 26 18 15 14 14 14 16 19 19 16 16 17 19 21 22 25 28 31 38 41 40
24 25 28 27 28 33 35 36 38 35 31 30 33 32 31 32 31 30 30 31 32 34 34 33 33 33 31 32 38 41 33 29 34 37 41 47 52 55 56 56 57 56 55 55 53 51 53 53 52 51 49 49 49 50 51 48 45 47 47 47 47 45 40 38 37 32 25 18 14 14 14 15 18 19 16 15 18 19 19 21 23 25 30 38 41 37
28 26 27 26 28 31 32 37 39 37 33 32 33 32 31 31 31 32 35 34 32 34 34 35 36 35 33 36 41 40 32 30 35 39 42 46 50 54 55 56 60 61 60 59 56 53 51 51 51 50 49 50 50 52 53 50 47 48 47 47 49 47 43 40 40 36 31 24 16 14 14 15 18 20 17 15 17 20 21 20 22 27 29 32 34 35
34 31 30 29 31 32 32 34 37 38 37 34 32 32 31 32 33 34 37 38 35 34 37 38 36 34 37 41 43 39 35 38 43 43 42 45 50 52 51 51 55 58 58 56 56 54 50 50 52 51 50 51 51 52 54 52 51 50 48 47 48 47 43 40 39 38 36 31 22 16 14 14 17 20 18 15 16 20 23 22 23 27 28 26 28 32
42 40 37 34 33 33 33 32 32 35 38 36 35 35 34 35 35 35 36 38 36 37 38 38 35 38 43 44 41 38 38 44 47 44 42 45 47 47 48 49 49 51 52 52 54 54 49 48 51 52 52 52 51 53 55 53 52 52 51 50 49 48 44 40 38 39 40 38 30 21 16 14 16 19 18 17 17 19 22 25 26 26 27 26 27 31
49 47 45 42 39 35 35 35 34 35 38 38 39 39 35 33 34 35 37 37 37 39 39 35 35 40 42 39 37 37 39 44 46 43 43 44 44 46 48 49 48 46 46 48 51 50 47 48 52 54 55 54 52 54 54 53 53 53 53 53 52 49 47 42 39 39 43 43 38 30 21 15 15 20 20 18 18 18 20 26 30 28 27 28 27 29
52 50 47 48 47 42 40 39 37 38 41 42 41 39 36 34 33 34 37 38 38 38 34 30 33 37 38 38 38 37 39 42 44 43 41 40 42 45 46 47 47 45 44 46 47 47 46 47 51 56 57 55 52 53 53 53 53 53 54 56 56 53 50 45 41 42 45 46 45 42 33 22 16 19 20 19 17 18 21 26 29 27 27 29 29 31
49 49 47 49 49 46 43 42 41 42 42 42 41 40 39 39 36 35 35 34 33 31 27 25 29 35 41 43 40 38 40 44 43 41 40 39 40 43 44 46 47 46 46 48 47 47 48 48 51 56 56 54 53 52 51 51 51 52 53 54 56 56 54 51 47 45 47 49 51 50 43 32 22 18 20 20 17 18 22 23 24 26 29 30 30 32
45 48 49 50 49 46 43 43 44 43 40 39 40 40 41 41 38 36 35 33 31 31 31 30 31 35 40 42 40 40 44 48 46 44 44 44 44 46 47 48 48 47 47 49 50 49 50 50 52 54 54 53 52 50 50 49 50 51 51 52 56 59 58 56 53 49 49 51 54 52 46 40 31 22 19 21 19 19 20 21 22 26 29 30 29 31
44 46 47 50 50 47 45 43 43 43 42 41 42 41 42 44 43 41 41 38 34 34 35 36 35 36 37 40 44 48 50 51 51 48 49 50 49 52 53 52 53 51 48 49 52 52 50 50 51 53 52 52 51 50 49 48 48 50 50 51 55 59 60 59 58 56 55 56 56 53 49 46 40 29 21 21 21 20 20 20 22 25 26 29 30 31
47 47 47 49 49 48 47 46 45 45 45 46 48 47 46 47 46 45 44 42 39 37 38 37 37 38 38 39 44 48 48 51 54 52 54 55 55 57 58 55 57 55 48 47 52 52 50 48 47 48 49 48 49 49 48 48 48 50 50 49 53 57 60 60 60 61 62 61 58 56 55 54 49 37 26 22 22 22 21 20 22 24 26 29 31 30
51 53 53 52 51 49 49 48 48 47 45 45 48 49 48 48 48 45 43 44 45 44 43 41 41 45 45 42 44 45 44 50 56 55 56 57 57 59 58 55 57 56 49 47 50 51 49 46 44 45 46 46 46 46 44 45 46 47 47 47 49 53 57 59 60 62 65 65 60 57 55 57 57 50 37 28 23 23 23 21 21 24 27 28 30 31
56 58 58 57 54 51 51 50 49 47 48 49 49 50 50 49 48 46 47 50 52 49 47 48 49 53 54 50 48 48 47 50 54 54 56 57 55 54 53 51 53 53 49 47 48 49 47 45 45 46 46 45 45 45 43 43 44 44 44 44 45 48 51 55 59 61 64 65 63 59 55 56 59 56 49 39 29 23 24 23 23 24 25 29 35 38
59 59 59 60 58 53 53 54 52 50 54 56 53 52 52 50 49 51 55 59 58 53 53 53 52 54 56 53 49 48 49 50 51 51 51 51 50 48 48 49 50 51 50 49 48 47 47 46 46 45 45 45 45 45 44 43 43 43 43 43 44 45 45 49 53 56 58 59 61 61 59 57 56 56 58 54 39 26 23 24 25 24 24 31 41 44
61 60 59 59 57 54 54 54 53 56 62 61 56 54 53 52 56 60 63 65 63 59 58 56 53 53 54 52 48 46 46 47 49 49 48 48 48 49 49 50 52 52 52 53 52 49 49 49 49 48 48 48 48 46 45 44 43 44 43 43 44 43 42 43 46 50 52 53 54 58 60 60 59 60 62 59 46 33 26 25 25 25 25 31 40 42
61 61 60 59 57 55 54 53 54 60 66 63 60 62 61 60 63 65 64 63 63 62 61 59 56 55 53 51 51 50 48 47 48 49 49 48 50 52 53 54 54 53 54 56 56 54 52 53 53 53 52 52 51 50 48 46 45 46 46 45 45 45 43 42 43 45 48 48 50 51 54 59 64 64 62 57 48 40 33 27 24 25 27 29 33 35
61 61 61 61 60 58 58 60 63 66 68 65 64 68 68 67 66 64 64 66 66 65 64 62 59 58 57 55 54 54 54 52 49 50 51 50 51 54 56 56 56 56 56 57 58 58 57 57 56 56 56 56 54 53 53 51 49 48 48 48 48 47 46 44 43 43 44 45 48 48 49 55 62 65 64 60 53 47 41 32 25 25 27 28 30 31
64 64 64 64 63 61 62 66 67 67 67 67 66 66 66 65 64 62 63 66 67 66 66 65 60 58 58 58 56 57 58 56 51 51 53 53 53 55 56 57 58 59 58 58 58 60 60 61 60 61 61 61 60 57 55 54 53 52 51 51 50 49 49 48 45 43 42 43 45 47 47 51 58 62 64 62 58 54 49 40 30 25 25 27 29 30
65 66 67 65 63 62 61 63 65 66 67 67 65 65 65 64 63 61 60 61 62 62 62 62 59 56 57 58 59 59 60 57 54 54 55 55 56 55 56 57 59 59 59 60 60 60 60 63 64 64 64 63 62 61 59 56 53 51 51 51 51 50 50 49 46 45 44 42 42 44 44 47 54 60 62 62 61 59 55 46 37 30 25 25 27 30
64 64 65 64 63 62 62 62 63 66 68 67 66 65 66 64 64 63 62 61 61 60 59 60 59 58 59 59 59 60 60 58 58 58 57 56 57 56 56 56 58 59 60 61 62 62 62 63 65 65 64 63 61 60 60 58 55 51 49 48 49 50 50 51 48 45 43 42 41 41 40 40 46 53 58 63 65 65 61 54 44 36 28 25 26 31
65 63 63 64 63 62 63 65 65 66 67 67 68 68 68 68 67 68 67 66 65 65 64 64 63 62 61 61 61 61 62 62 62 61 60 59 58 58 58 58 59 59 60 61 62 64 64 65 64 62 61 61 59 56 54 55 54 52 49 47 47 46 48 51 51 47 45 42 41 41 39 37 38 41 47 58 67 69 68 62 53 44 35 28 26 31
66 65 64 64 63 63 64 65 66 67 68 69 69 69 70 70 70 71 71 70 69 69 69 67 66 66 65 64 63 63 63 64 64 63 62 61 61 60 59 59 59 58 59 60 61 62 62 61 60 58 56 56 55 52 51 50 49 49 49 47 47 45 45 48 49 49 47 45 43 42 41 39 38 35 36 46 59 66 69 68 62 54 44 34 30 31
67 67 66 65 66 67 67 66 66 68 71 72 71 70 70 71 72 71 71 72 72 72 70 69 68 68 68 67 67 65 64 63 62 62 61 61 61 60 59 59 59 58 57 57 57 57 57 55 53 52 51 50 49 47 48 48 48 49 49 47 46 46 46 47 47 46 47 47 46 46 45 43 42 38 34 38 49 58 65 70 69 63 53 42 35 33
68 68 68 68 69 68 66 66 67 68 70 71 71 69 67 67 68 69 68 69 70 70 68 68 68 69 68 67 66 64 63 62 61 60 59 59 59 58 58 57 57 56 56 56 55 54 54 53 52 50 49 48 47 46 47 48 49 50 52 51 51 50 49 50 49 46 46 46 47 49 51 50 48 46 40 37 42 51 61 69 71 68 61 49 39 35